Back to catalog

COSMOS 2251 DEB

AliveLEO
NORAD 34572·DEBRIS·🇷🇺 Russia

Launched Jun 16, 1993 from Plesetsk Cosmodrome

Loading…

Next Passes (next 24 hours)

TLE

FreshSource: Space-Track

Epoch: Sep 13, 2026, 06:01 UTC

1 34572U 93036VJ  26256.25126310  .00003417  00000-0  79705-3 0  9999
2 34572  74.0088 317.2086 0064710 323.0205 100.1393 14.53884025913639

Track COSMOS 2251 DEB in real time with AllMySat

Download on the App Store